TimePDT,TemperatureF,Dew PointF,Humidity,Sea Level PressureIn,VisibilityMPH,Wind Direction,Wind SpeedMPH,Gust SpeedMPH,PrecipitationIn,Events,Conditions,WindDirDegrees,DateUTC
12:56 AM,42.1,36.0,79,30.20,10.0,WSW,8.1,-,N/A,,Scattered Clouds,250,2013-04-12 07:56:00
1:56 AM,44.1,37.0,76,30.19,10.0,West,8.1,-,N/A,,Overcast,270,2013-04-12 08:56:00
2:56 AM,44.1,37.0,76,30.18,10.0,West,8.1,-,N/A,,Overcast,270,2013-04-12 09:56:00
3:56 AM,41.0,36.0,82,30.15,10.0,Calm,Calm,-,N/A,,Overcast,0,2013-04-12 10:56:00
4:56 AM,39.9,37.0,89,30.13,10.0,East,4.6,-,N/A,,Overcast,100,2013-04-12 11:56:00
5:56 AM,41.0,37.0,86,30.09,10.0,Calm,Calm,-,N/A,,Overcast,0,2013-04-12 12:56:00
6:56 AM,42.1,37.0,82,30.07,10.0,Calm,Calm,-,N/A,,Overcast,0,2013-04-12 13:56:00
7:56 AM,43.0,37.0,80,30.05,10.0,Calm,Calm,-,N/A,,Overcast,0,2013-04-12 14:56:00
8:56 AM,44.1,37.9,79,30.03,10.0,SE,5.8,-,N/A,,Overcast,140,2013-04-12 15:56:00
9:56 AM,45.0,37.9,76,30.00,9.0,SE,5.8,-,N/A,,Overcast,130,2013-04-12 16:56:00
10:48 AM,44.6,39.2,81,29.98,9.0,SE,4.6,-,N/A,,Overcast,130,2013-04-12 17:48:00
10:56 AM,45.0,39.0,80,29.99,9.0,Calm,Calm,-,N/A,,Overcast,0,2013-04-12 17:56:00
11:27 AM,46.4,39.2,76,29.97,8.0,SSE,9.2,-,0.00,Rain,Light Rain,150,2013-04-12 18:27:00
11:40 AM,44.6,39.2,81,29.96,8.0,Calm,Calm,-,0.00,Rain,Light Rain,0,2013-04-12 18:40:00
11:56 AM,45.0,39.0,80,29.96,8.0,SSE,9.2,-,0.00,Rain,Light Rain,160,2013-04-12 18:56:00
12:31 PM,46.4,37.4,71,29.94,8.0,SE,13.8,-,0.00,Rain,Light Rain,140,2013-04-12 19:31:00
12:56 PM,46.0,37.9,73,29.94,8.0,SSE,16.1,20.7,0.00,Rain,Light Rain,150,2013-04-12 19:56:00
1:28 PM,44.6,37.4,76,29.92,7.0,SSE,19.6,27.6,0.00,Rain,Light Rain,160,2013-04-12 20:28:00
1:56 PM,43.0,37.9,82,29.92,6.0,SSE,12.7,20.7,0.02,Rain,Light Rain,150,2013-04-12 20:56:00
2:56 PM,43.0,39.0,86,29.89,6.0,ESE,11.5,-,0.03,Rain,Light Rain,120,2013-04-12 21:56:00
3:56 PM,42.1,39.0,89,29.83,6.0,ESE,18.4,24.2,0.02,Rain,Light Rain,120,2013-04-12 22:56:00
4:56 PM,43.0,39.0,86,29.80,6.0,SE,19.6,26.5,0.01,Rain,Light Rain,130,2013-04-12 23:56:00
5:56 PM,43.0,39.0,86,29.77,8.0,SE,17.3,25.3,0.01,Rain,Light Rain,130,2013-04-13 00:56:00
6:56 PM,44.1,39.0,82,29.74,8.0,SE,13.8,23.0,0.01,Rain,Light Rain,130,2013-04-13 01:56:00
7:56 PM,44.1,39.0,82,29.68,10.0,SE,21.9,29.9,0.00,Rain,Light Rain,130,2013-04-13 02:56:00
8:13 PM,44.6,39.2,81,29.67,10.0,SE,20.7,28.8,0.00,,Overcast,140,2013-04-13 03:13:00
8:56 PM,45.0,39.9,82,29.67,10.0,SE,20.7,27.6,0.00,Rain,Light Rain,140,2013-04-13 03:56:00
9:38 PM,44.6,39.2,81,29.71,6.0,SSW,16.1,19.6,0.01,Rain,Light Rain,210,2013-04-13 04:38:00
9:56 PM,43.0,39.0,86,29.72,8.0,West,20.7,28.8,0.03,Rain,Light Rain,260,2013-04-13 04:56:00
10:25 PM,42.8,37.4,81,29.71,10.0,West,17.3,-,0.00,,Overcast,260,2013-04-13 05:25:00
10:56 PM,42.1,36.0,79,29.72,10.0,West,28.8,41.4,0.00,,Overcast,280,2013-04-13 05:56:00
11:40 PM,39.2,35.6,87,29.75,6.0,WSW,33.4,48.3,0.00,Rain,Light Rain,250,2013-04-13 06:40:00
11:56 PM,39.9,34.0,79,29.75,10.0,WSW,26.5,34.5,0.00,,Scattered Clouds,240,2013-04-13 06:56:00